User: anonymous   Login
Location: Unspecified
(0.0000°N, 0.0000°E)
Time: 22:23:52
(UTC+00:00)
Language:

STARLINK-32694 - Orbit

View from above orbital plane
View from above orbital plane
View from above satellite
View from above satellite

Ground track
Ground track

The orbit is defined by the following mean orbital elements,

1 62494U          26145.57698162 +.00000000 +00000-0 +58468-3 0 00004
2 62494  42.9983 214.4802 0000311  50.0567 310.0312 15.27588764    04
Epoch (UTC): 25 May 2026 13:50:51
Eccentricity: 0.0000311
inclination: 42.9983°
perigee height: 483 km
apogee height: 483 km
right ascension of ascending node: 214.4802°
argument of perigee: 50.0567°
revolutions per day: 15.27588764
mean anomaly at epoch: 310.0312°

The dashed part of the orbit path shows where the satellite is in the earth's shadow,  

DLR